Location: Groß Eilstorf
(52.8200°N, 9.4552°E)
Time: 11:47:48
(UTC+00:00)

Alouette 2 Rocket - Pass Details

Date: 15 May 2026
Orbit: 501 x 2614 km, 79.8° (Epoch: 9 June)

Event Time Altitude Azimuth Distance (km) Brightness Sun altitude
Rises 23:20:51 0° 344° (NNW) 2,629 8.2 -18.1°
Reaches altitude 10° 23:22:46 10° 345° (NNW) 1,789 7.1 -18.1°
Maximum altitude 23:26:31 87° 72° (ENE) 620 3.5 -18.1°
Enters shadow 23:28:25 35° 163° (SSE) 1,086 4.3 -18.1°
